This is the latest recevied weather packets stored in our database for station/object NK7E-2. If no packets are shown the sender has not sent any weather packets the latest 10 day(s).
| Time | Temp. | Humidity | Pressure | Rain* | Wind** | Luminosity | Snow |
|---|---|---|---|---|---|---|---|
| 1787842215 | 31.67° C | 26% | 1030.7 hPa | 0 mm | - | - | - |
| 1787841615 | 30.56° C | 28% | 1030.5 hPa | 0 mm | - | - | - |
| 1787841015 | 30.56° C | 28% | 1030 hPa | 0 mm | - | - | - |
| 1787840415 | 30° C | 29% | 1029.9 hPa | 0 mm | - | - | - |
| 1787839815 | 29.44° C | 31% | 1029.8 hPa | 0 mm | - | - | - |
| 1787839215 | 28.89° C | 31% | 1029.5 hPa | 0 mm | - | - | - |
| 1787838615 | 28.33° C | 31% | 1029.5 hPa | 0 mm | - | - | - |
| 1787838017 | 27.22° C | 32% | 1029.2 hPa | 0 mm | - | - | - |
| 1787837415 | 27.22° C | 31% | 1029.1 hPa | 0 mm | - | - | - |
| 1787836817 | 27.22° C | 31% | 1029 hPa | 0 mm | - | - | - |
| 1787836217 | 27.22° C | 31% | 1028.8 hPa | 0 mm | - | - | - |
| 1787835617 | 27.22° C | 31% | 1028.8 hPa | 0 mm | - | - | - |
| 1787835015 | 27.22° C | 31% | 1028.8 hPa | 0 mm | - | - | - |
| 1787834417 | 27.78° C | 30% | 1029.2 hPa | 0 mm | - | - | - |
| 1787833817 | 27.78° C | 30% | 1029.2 hPa | 0 mm | - | - | - |
| 1787833217 | 27.78° C | 30% | 1029.1 hPa | 0 mm | - | - | - |
| 1787832617 | 27.78° C | 30% | 1029.2 hPa | 0 mm | - | - | - |
| 1787832017 | 27.22° C | 31% | 1028.8 hPa | 0 mm | - | - | - |
| 1787831417 | 27.22° C | 31% | 1028.6 hPa | 0 mm | - | - | - |
| 1787830817 | 27.22° C | 31% | 1028.7 hPa | 0 mm | - | - | - |
| 1787830217 | 27.22° C | 30% | 1029.1 hPa | 0 mm | - | - | - |
| 1787829617 | 27.22° C | 30% | 1029.1 hPa | 0 mm | - | - | - |
| 1787829017 | 27.22° C | 30% | 1028.9 hPa | 0 mm | - | - | - |
| 1787828417 | 27.78° C | 30% | 1028.8 hPa | 0 mm | - | - | - |
| 1787827817 | 27.78° C | 30% | 1028.7 hPa | 0 mm | - | - | - |
* Rain latest hour (hover to see other rain measurements)
** Current wind speed in m/s (hover to see current wind gust speed)